Wind_Speed
13 12 11 11 11 12 14 16 19 21 23 25 28 29 30 31 33 34 36 38 39 41 42 43 44 46 48 49 50 53 54 56 57 58 58 58 60 61 63 64 64 64 64 64
10 11 11 12 12 13 15 17 19 21 23 26 28 30 31 34 37 40 43 44 45 46 47 47 49 52 53 54 56 59 61 63 64 64 65 65 65 65 66 67 68 68 68 67
11 11 11 13 16 18 19 20 21 22 23 27 31 33 36 39 43 46 48 50 52 53 54 56 58 60 62 62 63 64 67 68 69 70 72 72 71 71 72 72 72 73 74 74
9 11 13 15 17 18 19 20 22 24 26 30 35 39 42 44 47 51 53 56 58 61 63 66 67 68 69 69 70 71 72 73 74 75 77 78 77 76 76 77 76 77 78 78
10 12 15 16 17 17 19 22 25 28 31 34 37 42 46 48 51 53 56 59 63 66 70 73 73 74 75 75 75 76 76 77 79 79 80 80 79 78 78 79 78 77 77 79
12 12 13 15 17 19 22 25 28 33 37 39 43 48 53 56 58 61 63 65 68 71 74 76 77 79 80 81 81 80 80 81 82 81 80 78 74 72 71 71 73 73 74 76
13 13 14 16 19 22 25 28 33 39 42 45 49 54 59 63 66 69 70 70 72 73 75 77 79 81 82 83 84 84 83 81 79 74 68 62 58 56 55 56 58 61 64 68
15 16 17 19 21 25 28 33 38 43 47 50 55 60 65 69 72 73 73 73 72 73 76 78 80 82 83 83 84 83 80 74 66 58 50 45 43 44 46 49 52 56 59 62
17 17 19 22 25 28 32 38 43 48 53 58 61 65 69 73 75 74 72 70 70 73 76 78 80 80 80 79 77 73 65 55 47 40 36 36 39 42 44 45 47 49 52 55
18 21 23 26 28 32 37 44 49 54 58 62 65 69 72 75 73 70 68 67 69 72 73 73 71 67 63 60 55 48 41 35 31 31 32 34 37 38 37 37 39 42 44 44
22 24 28 30 31 36 42 48 53 56 59 63 68 72 74 73 72 69 67 66 66 64 62 59 55 53 51 46 40 35 31 29 29 29 30 32 34 34 35 36 38 40 40 38
24 27 31 34 36 40 46 51 55 58 61 65 70 74 74 72 68 65 63 61 59 58 55 51 51 48 44 38 33 29 27 26 26 26 28 30 32 33 33 34 36 37 35 31
27 30 33 36 40 44 48 53 56 60 63 68 71 71 73 68 65 61 57 56 57 52 49 49 47 43 39 35 31 28 27 26 26 27 28 30 32 33 32 31 32 32 30 26
28 30 33 38 42 46 50 55 58 62 66 70 72 74 72 69 63 56 52 52 51 48 47 46 43 40 38 35 31 30 29 29 29 30 31 32 32 33 32 30 29 28 26 24
29 31 34 39 44 49 52 56 60 64 69 71 73 72 70 65 58 53 51 50 48 47 46 44 42 40 38 36 33 32 31 32 33 34 34 34 33 33 32 30 28 25 23 22
31 34 36 41 47 51 54 58 63 66 69 72 73 70 68 60 53 49 48 47 46 46 45 44 43 42 41 39 36 35 34 35 36 37 37 37 35 34 33 32 29 25 22 21
33 36 40 45 50 55 56 61 65 68 71 75 73 71 64 55 50 47 47 47 45 44 45 45 45 45 44 42 41 39 38 38 39 40 41 41 39 37 34 33 31 28 24 21
35 39 44 48 53 55 59 62 66 70 71 72 69 64 57 52 49 47 48 48 45 45 46 47 48 48 48 47 46 45 44 44 43 43 43 43 42 40 37 35 33 31 28 25
37 43 48 52 55 57 61 65 68 72 72 71 65 57 52 49 48 47 48 46 44 45 48 50 51 52 52 52 51 51 50 49 48 47 46 45 42 40 38 36 35 33 31 29
41 46 50 53 56 59 63 66 70 73 70 66 58 52 49 47 45 44 43 42 44 47 50 53 55 55 55 55 55 55 54 53 51 50 48 46 43 40 38 36 35 35 34 32
44 49 52 55 57 59 65 68 71 71 71 65 54 47 46 45 44 45 44 45 47 51 54 56 57 57 58 58 57 57 57 56 55 53 51 48 45 43 41 38 36 35 35 35
47 51 54 57 59 61 65 68 71 71 69 58 47 44 44 44 46 47 49 50 52 54 56 57 58 59 61 61 61 61 60 58 57 56 54 51 49 47 45 43 40 38 37 37
49 52 55 57 58 62 66 69 72 72 65 52 43 42 43 46 49 51 53 54 56 57 58 60 61 62 62 60 59 56 54 52 50 49 47 47 46 46 47 47 46 44 43 41
51 54 56 57 60 63 67 69 72 70 62 49 42 42 45 48 51 54 56 58 58 60 62 62 59 55 52 51 51 51 50 50 48 45 43 40 39 38 39 42 45 47 48 47
53 56 56 57 60 63 66 69 71 69 61 50 43 43 46 50 54 56 58 59 61 62 58 52 49 49 50 51 51 51 52 52 51 48 45 41 38 36 34 33 34 38 44 50
53 55 56 57 61 63 65 69 71 69 60 50 45 45 48 52 56 58 59 61 60 54 47 46 47 48 49 50 51 52 52 52 51 49 46 42 38 36 35 34 32 32 32 36
Wind_Direction
41 41 35 30 25 16 5 356 351 349 344 338 337 337 335 331 326 322 318 316 312 307 303 299 295 292 289 286 283 282 281 280 277 276 275 274 273 271 270 269 269 267 265 264
37 29 18 11 8 3 355 349 345 343 341 337 337 336 333 329 326 323 319 316 312 308 303 299 294 291 288 285 282 281 281 281 278 276 274 273 272 269 267 267 268 268 267 265
25 15 6 359 353 348 344 343 343 343 342 337 335 333 330 327 326 324 320 316 312 308 304 300 295 292 289 287 284 283 282 281 280 278 276 275 273 273 271 268 266 266 267 266
12 359 352 347 344 341 340 342 343 344 342 337 332 328 326 324 324 321 317 314 311 307 303 300 298 295 292 289 288 286 286 285 283 281 280 280 279 276 274 271 269 268 266 265
1 351 345 342 343 344 342 341 340 336 332 328 323 318 316 317 316 314 311 309 306 303 300 298 297 295 292 290 288 287 286 286 285 285 284 284 283 282 280 277 274 270 267 265
340 339 341 343 346 345 341 337 332 327 325 323 319 315 312 312 311 309 308 307 304 302 300 299 297 293 290 288 287 287 287 287 288 288 289 288 286 284 281 279 276 273 269 265
330 333 340 343 341 337 333 330 327 327 326 323 319 315 314 313 311 309 308 306 305 303 300 297 293 291 289 288 288 289 290 291 292 292 292 290 287 285 282 279 276 273 269 264
336 339 340 338 334 330 328 327 328 326 324 321 319 317 316 313 311 310 308 306 305 302 298 295 294 294 293 292 291 291 293 294 293 293 291 290 289 289 289 286 282 277 271 265
335 336 336 335 332 330 328 327 327 325 323 322 320 317 314 314 314 312 308 305 302 298 295 295 297 299 299 297 296 296 296 295 294 293 293 294 297 299 300 298 297 293 285 275
333 332 331 331 329 329 329 329 328 327 324 322 320 317 317 317 315 311 306 303 300 299 300 303 306 307 307 306 304 302 301 301 299 298 299 301 304 307 308 307 307 304 299 291
332 333 331 329 328 328 329 330 329 326 324 321 320 319 320 318 316 312 309 308 307 309 312 316 318 319 318 315 311 308 307 306 303 302 303 307 309 309 308 309 311 311 304 295
329 331 330 329 329 329 330 330 328 326 324 322 320 321 323 321 318 315 314 315 316 319 323 326 327 327 326 323 319 315 314 311 308 307 307 310 312 310 308 310 314 317 312 303
328 331 330 330 330 331 331 330 328 327 325 324 324 325 325 322 319 319 319 320 323 327 329 330 330 331 332 331 328 324 322 320 319 316 314 314 315 312 308 309 314 320 318 308
330 331 331 330 330 330 331 330 329 327 326 327 328 328 328 325 324 324 325 328 331 332 332 332 334 337 338 337 334 330 329 329 328 325 321 317 315 313 309 307 311 317 319 313
329 329 331 331 330 331 332 330 329 329 329 331 332 332 331 329 329 331 334 336 335 334 334 335 337 339 340 338 335 331 329 328 327 326 322 319 315 311 307 305 306 311 312 312
328 328 332 333 331 332 333 332 331 330 331 334 335 334 333 333 333 335 336 337 336 335 336 337 338 338 338 337 334 330 326 323 321 320 319 317 314 310 305 301 299 300 302 304
328 330 333 334 332 334 335 335 332 331 335 337 337 337 337 336 334 335 337 337 335 335 337 338 338 338 337 334 332 328 324 320 316 314 313 313 312 309 304 297 293 291 289 288
330 332 334 334 334 335 337 334 334 335 337 339 339 340 339 335 333 333 334 334 333 335 336 336 335 334 333 331 329 326 323 319 315 312 310 309 307 306 303 297 290 285 280 276
332 335 335 334 334 336 337 336 335 335 338 340 340 342 342 341 338 335 333 334 334 333 333 332 331 330 328 327 325 322 319 317 314 311 308 306 303 301 300 296 290 283 276 270
334 337 335 334 334 336 337 336 335 336 339 341 342 345 347 348 346 342 339 336 333 331 330 328 327 325 324 322 320 318 315 313 311 308 306 304 300 297 295 293 288 283 277 270
335 337 336 335 335 336 337 336 336 337 340 342 343 346 349 349 347 345 341 337 334 331 328 327 325 323 321 320 318 316 313 311 308 305 302 299 296 292 290 287 285 280 275 270
336 336 335 335 335 336 336 335 337 338 340 341 343 347 348 348 346 343 340 337 334 331 329 328 326 324 322 320 318 316 315 312 310 306 302 298 293 288 284 281 278 275 272 267
335 336 335 334 334 334 335 336 337 340 341 341 341 345 346 345 344 342 339 337 335 334 332 330 327 326 325 326 327 327 326 325 321 317 311 305 297 289 282 277 272 269 266 264
337 337 335 333 334 334 335 336 337 341 341 337 336 339 342 342 342 341 339 338 336 335 332 331 332 336 340 343 344 343 342 340 337 333 328 322 316 307 297 285 275 268 264 260
338 337 335 334 334 334 335 335 338 341 339 334 331 334 338 340 340 339 339 338 337 336 337 341 348 352 353 353 352 351 350 348 346 344 340 335 330 325 319 309 296 283 272 264
337 335 334 333 334 333 334 335 339 341 339 333 330 332 335 338 339 339 339 339 339 341 348 354 356 357 356 356 356 355 354 353 351 350 347 344 340 336 332 327 318 306 293 280
Height
5843 5843 5840 5839 5837 5835 5833 5831 5829 5826 5823 5819 5814 5811 5806 5802 5796 5791 5786 5780 5775 5768 5762 5756 5750 5744 5738 5733 5727 5722 5717 5712 5708 5704 5699 5696 5692 5689 5686 5683 5681 5679 5679 5679
5845 5843 5841 5838 5836 5833 5831 5828 5825 5822 5818 5813 5808 5804 5800 5795 5789 5783 5777 5771 5765 5759 5752 5745 5737 5730 5723 5717 5710 5704 5699 5693 5689 5685 5680 5676 5672 5669 5668 5666 5663 5660 5660 5660
5843 5842 5840 5837 5835 5832 5829 5826 5822 5819 5814 5808 5804 5799 5793 5787 5781 5775 5767 5760 5752 5745 5738 5730 5721 5713 5705 5698 5691 5684 5678 5672 5667 5662 5658 5655 5651 5647 5644 5643 5642 5641 5640 5639
5842 5840 5838 5836 5833 5830 5827 5823 5819 5814 5810 5805 5800 5793 5786 5779 5772 5764 5755 5747 5738 5729 5720 5710 5701 5692 5683 5676 5668 5661 5654 5647 5641 5636 5631 5628 5624 5621 5619 5617 5617 5617 5616 5616
5840 5838 5836 5833 5831 5827 5824 5820 5815 5810 5805 5800 5793 5785 5778 5770 5761 5752 5743 5733 5722 5712 5700 5689 5679 5669 5660 5651 5643 5636 5629 5622 5615 5609 5604 5600 5596 5592 5589 5587 5589 5590 5590 5590
5838 5836 5833 5829 5826 5823 5820 5816 5812 5806 5800 5794 5785 5777 5766 5758 5748 5738 5728 5716 5704 5693 5681 5669 5658 5647 5637 5627 5619 5612 5606 5598 5591 5584 5578 5574 5570 5566 5562 5559 5559 5560 5561 5562
5837 5834 5830 5827 5824 5821 5817 5813 5808 5801 5794 5786 5777 5766 5757 5744 5732 5721 5710 5698 5685 5673 5661 5649 5636 5625 5615 5606 5597 5589 5583 5576 5569 5562 5557 5552 5548 5544 5540 5536 5534 5533 5533 5533
5834 5831 5828 5823 5820 5815 5811 5806 5801 5794 5786 5778 5768 5755 5744 5731 5718 5705 5692 5679 5667 5654 5640 5627 5614 5603 5593 5584 5575 5568 5562 5556 5549 5544 5540 5535 5532 5528 5523 5518 5514 5511 5509 5508
5831 5828 5824 5819 5814 5810 5805 5799 5793 5785 5775 5765 5755 5743 5730 5716 5703 5690 5676 5663 5650 5635 5621 5609 5597 5586 5573 5563 5554 5547 5542 5537 5533 5530 5527 5523 5519 5514 5508 5502 5496 5490 5486 5483
5829 5825 5821 5816 5811 5805 5800 5792 5784 5774 5761 5751 5742 5729 5716 5702 5690 5676 5662 5649 5633 5619 5606 5595 5582 5570 5557 5546 5537 5531 5526 5523 5520 5518 5515 5512 5507 5502 5496 5490 5484 5477 5469 5463
5825 5822 5817 5811 5806 5800 5793 5785 5775 5764 5750 5737 5724 5716 5701 5686 5671 5656 5642 5628 5614 5603 5592 5580 5569 5557 5546 5535 5528 5522 5518 5515 5512 5509 5506 5502 5497 5492 5486 5480 5473 5465 5457 5450
5820 5818 5812 5807 5800 5793 5785 5776 5766 5755 5743 5728 5712 5701 5683 5668 5652 5638 5625 5613 5601 5591 5579 5569 5558 5548 5538 5530 5523 5517 5513 5509 5506 5502 5498 5494 5489 5483 5478 5472 5464 5456 5447 5440
5816 5812 5807 5801 5795 5786 5777 5766 5755 5744 5732 5718 5703 5691 5669 5655 5642 5630 5618 5605 5593 5582 5571 5562 5553 5543 5534 5526 5519 5513 5508 5504 5499 5495 5490 5485 5480 5475 5469 5464 5457 5449 5441 5434
5811 5807 5802 5796 5786 5777 5769 5758 5747 5735 5721 5706 5691 5676 5661 5645 5632 5622 5611 5598 5586 5575 5566 5557 5548 5538 5530 5522 5515 5509 5503 5498 5493 5488 5483 5477 5472 5466 5461 5455 5450 5443 5436 5430
5806 5801 5795 5788 5778 5769 5760 5750 5738 5724 5709 5695 5679 5661 5646 5631 5619 5609 5598 5588 5578 5569 5560 5551 5543 5534 5526 5518 5511 5505 5499 5493 5487 5481 5476 5470 5464 5458 5453 5447 5443 5437 5431 5427
5800 5794 5789 5782 5771 5761 5751 5740 5727 5713 5699 5684 5668 5654 5638 5623 5612 5603 5593 5583 5573 5564 5555 5546 5537 5529 5521 5513 5506 5500 5493 5487 5480 5474 5468 5462 5456 5450 5444 5439 5435 5431 5426 5422
5794 5787 5781 5774 5763 5752 5742 5730 5717 5703 5686 5672 5657 5643 5626 5614 5605 5596 5587 5577 5568 5558 5549 5540 5531 5523 5515 5507 5499 5492 5486 5479 5472 5465 5458 5452 5446 5441 5435 5430 5426 5423 5419 5416
5788 5781 5773 5765 5755 5743 5736 5721 5707 5691 5676 5660 5645 5631 5617 5606 5597 5589 5580 5571 5562 5553 5543 5534 5525 5517 5508 5500 5491 5483 5476 5469 5462 5455 5448 5441 5435 5430 5424 5420 5416 5413 5411 5408
5781 5774 5765 5756 5745 5735 5724 5710 5696 5682 5669 5653 5638 5626 5614 5603 5592 5582 5573 5564 5555 5546 5537 5528 5518 5509 5500 5490 5482 5473 5465 5457 5449 5442 5435 5428 5422 5417 5412 5408 5404 5402 5400 5398
5774 5767 5758 5746 5735 5725 5716 5702 5687 5673 5660 5644 5630 5619 5608 5598 5589 5580 5568 5559 5550 5541 5531 5521 5511 5500 5490 5481 5471 5461 5452 5444 5436 5428 5421 5414 5409 5403 5399 5395 5392 5389 5387 5386
5767 5759 5749 5737 5726 5716 5705 5693 5679 5667 5655 5638 5624 5613 5602 5592 5582 5573 5564 5554 5545 5535 5524 5513 5502 5490 5479 5469 5458 5448 5438 5429 5420 5412 5405 5399 5393 5389 5384 5381 5378 5375 5373 5372
5759 5750 5739 5728 5717 5710 5696 5684 5672 5659 5642 5628 5617 5607 5597 5588 5578 5569 5559 5549 5538 5528 5516 5504 5492 5479 5467 5455 5444 5433 5423 5412 5403 5394 5386 5380 5375 5371 5367 5364 5362 5359 5358 5357
5752 5743 5731 5721 5712 5700 5688 5675 5662 5648 5635 5622 5612 5603 5593 5584 5574 5564 5554 5543 5531 5519 5507 5494 5481 5468 5455 5442 5430 5419 5408 5397 5387 5377 5368 5361 5354 5350 5347 5344 5343 5342 5340 5340
5745 5735 5724 5713 5702 5691 5679 5667 5653 5640 5627 5617 5608 5599 5589 5579 5570 5559 5548 5536 5524 5511 5498 5485 5471 5459 5446 5434 5423 5411 5399 5388 5377 5366 5357 5348 5340 5333 5328 5325 5323 5322 5321 5321
5737 5727 5717 5706 5695 5684 5672 5660 5647 5634 5622 5612 5603 5593 5584 5575 5564 5553 5542 5529 5516 5503 5489 5476 5465 5454 5443 5431 5420 5408 5395 5383 5370 5359 5348 5339 5331 5323 5317 5311 5306 5303 5302 5301
5729 5719 5709 5700 5689 5679 5667 5654 5641 5628 5616 5606 5597 5588 5579 5569 5559 5547 5535 5522 5509 5496 5484 5474 5463 5453 5442 5430 5418 5406 5393 5380 5368 5356 5344 5334 5325 5317 5310 5302 5296 5290 5287 5284